Tracking 21611 objects as of 21-Oct-2020
HD Live streaming from Space Station
objects crossing your sky now

EXPRESS 2

Track EXPRESS 2 now!
EXPRESS 2 is classified as:


NORAD ID: 24435
Int'l Code: 1996-058A
Perigee: 35,765.9 km
Apogee: 35,847.5 km
Inclination: 14.7 °
Period: 1,436.8 minutes
Semi major axis: 42177 km
RCS: 10 m2 (large)
Launch date: September 26, 1996
Source: Commonwealth of Independent States (former USSR) (CIS)
Launch site: TYURATAM MISSILE AND SPACE COMPLEX (TTMTR)
aabbcc
Your satellite tracking list
Your tracking list is empty




NASA's NSSDC Master Catalog

Two Line Element Set (TLE):
1 24435U 96058A   20294.76091045 +.00000039 +00000-0 +00000-0 0  9997
2 24435 014.6701 010.7001 0009677 336.5653 013.4176 01.00225539088092
Source of the keplerian elements: AFSPC